Flight Track Log - Related Links

Times and Time Zones

All times are in EDT time to prevent confusion due to time zone crossing. See the FDX1720 flight status page for this flight to view local times or setup timezone preferences in your user account.

Time Position Orientation Groundspeed Altitude Reporting Facility
EDT Latitude Longitude Course Direction KTS MPH feet Rate Location/Type
Fri 04:51:12 AM 39.7000 -86.3167 229° Southwest 175 201 2,000  Level Indianapolis TRACON
Fri 04:52:12 AM 39.6667 -86.3667 229° Southwest 247 284 4,500 3,032 Climbing Indianapolis TRACON
Fri 04:52:45 AM 39.6594 -86.4136 259° West 260 299 6,700 3,894 Climbing Indianapolis Center
Fri 04:53:46 AM 39.6664 -86.5078 276° West 258 297 10,600 2,863 Climbing Indianapolis Center
Fri 04:59:42 AM 39.7817 -87.3097 286° West 370 426 26,600 2,643 Climbing FlightAware ADS-B
Fri 05:00:21 AM 39.8131 -87.4570 285° West 428 493 28,000 2,519 Climbing FlightAware ADS-B
Fri 05:01:03 AM 39.8260 -87.5184 285° West 573 659 30,000 2,657 Climbing FlightAware ADS-B
Fri 05:02:41 AM 39.8871 -87.8125 285° West 472 543 34,200 2,400 Climbing FlightAware ADS-B
Fri 05:03:13 AM 39.9037 -87.8942 284° West 472 543 35,200 1,500 Climbing FlightAware ADS-B
Fri 05:03:53 AM 39.9241 -87.9943 285° West 466 536 36,000 593 Climbing FlightAware ADS-B
Fri 05:04:34 AM 39.9449 -88.0956 285° West 404 465 36,000  Level FlightAware ADS-B
Fri 05:05:04 AM 39.9603 -88.1713 285° West 462 532 36,000  Level FlightAware ADS-B
Fri 05:05:38 AM 39.9756 -88.2465 285° West 404 465 36,000  Level FlightAware ADS-B
Fri 05:06:13 AM 39.9921 -88.3275 285° West 390 449 36,000  Level FlightAware ADS-B
Fri 05:06:32 AM 40.0042 -88.3864 285° West 434 499 36,000  Level FlightAware ADS-B
Fri 05:08:01 AM 40.0481 -88.6049 285° West 433 498 36,000  Level FlightAware ADS-B
Fri 05:08:35 AM 40.0647 -88.6887 285° West 343 395 36,000  Level FlightAware ADS-B
Fri 05:08:45 AM 40.0697 -88.7146 284° West 228 262 36,000  Level FlightAware ADS-B
Fri 05:09:36 AM 40.0944 -88.8389 285° West 452 520 36,000  Level FlightAware ADS-B
Fri 05:10:21 AM 40.1163 -88.9496 284° West 422 486 36,000  Level FlightAware ADS-B
Fri 05:10:46 AM 40.1255 -88.9973 284° West 415 478 36,000  Level FlightAware ADS-B
Fri 05:11:21 AM 40.1432 -89.0876 284° West 415 478 36,000  Level FlightAware ADS-B
Fri 05:11:55 AM 40.1608 -89.1783 284° West 349 402 36,000  Level FlightAware ADS-B
Fri 05:12:25 AM 40.1739 -89.2460 284° West 356 410 36,000  Level FlightAware ADS-B
Fri 05:13:12 AM 40.1969 -89.3654 284° West 435 501 36,000  Level FlightAware ADS-B
Fri 05:13:52 AM 40.2160 -89.4642 284° West 343 395 36,000  Level FlightAware ADS-B
Fri 05:14:22 AM 40.2301 -89.5372 284° West 380 437 36,000  Level FlightAware ADS-B
Fri 05:15:00 AM 40.2460 -89.6210 284° West 400 460 36,000  Level FlightAware ADS-B
Fri 05:15:43 AM 40.2663 -89.7285 284° West 425 489 36,000  Level FlightAware ADS-B
Fri 05:16:19 AM 40.2772 -89.7889 284° West 415 478 36,000  Level Chicago Center
Fri 05:17:20 AM 40.3044 -89.9364 284° West 414 476 36,000  Level Chicago Center
Fri 05:18:20 AM 40.3325 -90.0864 284° West 418 481 36,000  Level Chicago Center
Fri 05:19:21 AM 40.3608 -90.2339 284° West 418 481 36,000  Level Chicago Center
Fri 05:20:21 AM 40.3869 -90.3811 283° West 416 479 36,000  Level Chicago Center
Fri 05:21:22 AM 40.4136 -90.5264 284° West 411 473 36,000  Level Chicago Center
Fri 05:22:22 AM 40.4397 -90.6708 283° West 409 471 36,000  Level Chicago Center
Fri 05:23:23 AM 40.4711 -90.8453 283° West 409 471 36,000  Level Chicago Center
Fri 05:24:24 AM 40.4964 -90.9906 283° West 408 470 36,000  Level Chicago Center
Fri 05:25:24 AM 40.5217 -91.1364 283° West 409 471 36,000  Level Chicago Center
Fri 05:26:25 AM 40.5478 -91.2825 283° West 410 472 36,000  Level Chicago Center
Fri 05:27:25 AM 40.5697 -91.4094 283° West 409 471 36,000  Level Chicago Center
Fri 05:28:26 AM 40.5942 -91.5528 283° West 409 471 36,000  Level Chicago Center
Fri 05:36:31 AM 40.7926 -92.7538 282° West 432 497 36,000  Level FlightAware ADS-B
Fri 05:39:46 AM 40.8676 -93.2296 1000° North 412 474 36,000  Level FlightAware ADS-B
Fri 05:40:16 AM 40.8789 -93.3031 1000° North 405 466 36,000  Level FlightAware ADS-B
Fri 05:40:46 AM 40.8903 -93.3767 1000° North 467 537 36,000  Level FlightAware ADS-B
Fri 05:41:16 AM 40.9018 -93.4518 1000° North 399 459 36,000  Level FlightAware ADS-B
Fri 05:41:47 AM 40.9131 -93.5268 1000° North 432 497 36,000  Level FlightAware ADS-B
Fri 05:42:17 AM 40.9244 -93.6006 1000° North 452 520 36,000  Level FlightAware ADS-B
Fri 05:42:47 AM 40.9358 -93.6756 1000° North 366 421 36,000  Level FlightAware ADS-B
Fri 05:43:18 AM 40.9473 -93.7506 1000° North 515 593 36,000  Level FlightAware ADS-B
Fri 05:43:46 AM 40.9527 -93.7877 281° West 330 380 36,000  Level FlightAware ADS-B
Fri 05:43:48 AM 40.9582 -93.8246 1000° North 311 358 36,000 -1,125 Level FlightAware ADS-B
Fri 05:44:18 AM 40.9696 -93.9001 1000° North 416 479 35,400 -1,400 Descending FlightAware ADS-B
Fri 05:44:48 AM 40.9806 -93.9752 1000° North 346 398 34,600 -2,066 Descending FlightAware ADS-B
Fri 05:45:19 AM 40.9922 -94.0522 1000° North 416 479 33,300 -3,049 Descending FlightAware ADS-B
Fri 05:45:49 AM 41.0037 -94.1295 1000° North 410 472 31,500 -3,600 Descending FlightAware ADS-B
Fri 05:46:19 AM 41.0154 -94.2086 1000° North 393 452 29,700 -4,190 Descending FlightAware ADS-B
Fri 05:46:52 AM 41.0279 -94.2943 1000° North 408 470 27,100 -4,000 Descending FlightAware ADS-B
Fri 05:47:37 AM 41.0454 -94.4148 1000° North 472 543 24,500 -3,280 Descending FlightAware ADS-B
Fri 05:48:07 AM 41.0568 -94.4922 1000° North 457 526 23,000 -3,000 Descending FlightAware ADS-B
Fri 05:48:37 AM 41.0679 -94.5684 1000° North 438 504 21,500 -2,951 Descending FlightAware ADS-B
Fri 05:49:08 AM 41.0788 -94.6448 1000° North 422 486 20,000 -3,049 Descending FlightAware ADS-B
Fri 05:49:38 AM 41.0891 -94.7188 1000° North 370 426 18,400 -3,100 Descending FlightAware ADS-B
Fri 05:50:08 AM 41.0995 -94.7923 1000° North 400 460 16,900 -2,903 Descending FlightAware ADS-B
Fri 05:50:40 AM 41.1096 -94.8659 1000° North 446 513 15,400 -3,000 Descending FlightAware ADS-B
Fri 05:51:10 AM 41.1172 -94.9354 1000° North 524 603 13,800 -3,200 Descending FlightAware ADS-B
Fri 05:51:40 AM 41.1241 -95.0048 1000° North 452 520 12,200 -3,000 Descending FlightAware ADS-B
Fri 05:52:10 AM 41.1303 -95.0750 1000° North 376 433 10,800 -1,900 Descending FlightAware ADS-B
Fri 05:52:40 AM 41.1357 -95.1397 1000° North 405 466 10,300 -800 Descending FlightAware ADS-B
Fri 05:53:10 AM 41.1405 -95.1988 1000° North 375 432 10,000 -652 Descending FlightAware ADS-B
Fri 05:53:26 AM 41.1429 -95.2276 1000° North 347 399 9,800 -1,091 Descending FlightAware ADS-B
Fri 05:53:54 AM 41.1474 -95.2774 1000° North 402 463 9,200 -1,395 Descending FlightAware ADS-B
Fri 05:54:09 AM 41.1498 -95.3045 1000° North 296 341 8,800 -1,600 Descending FlightAware ADS-B
Fri 05:54:24 AM 41.1520 -95.3306 1000° North 369 425 8,400 -1,548 Descending FlightAware ADS-B
Fri 05:54:40 AM 41.1545 -95.3572 1000° North 368 423 8,000 -1,548 Descending FlightAware ADS-B
Fri 05:54:55 AM 41.1567 -95.3837 1000° North 367 422 7,600 -1,655 Descending FlightAware ADS-B
Fri 05:55:38 AM 41.1625 -95.4557 1000° North 311 358 6,400 -1,588 Descending FlightAware ADS-B
Fri 05:56:03 AM 41.1661 -95.4985 1000° North 277 319 5,800 -1,467 Descending FlightAware ADS-B
Fri 05:56:23 AM 41.1690 -95.5316 1000° North 277 319 5,300 -1,500 Descending FlightAware ADS-B
Fri 05:56:43 AM 41.1718 -95.5636 1000° North 284 327 4,800 -1,579 Descending FlightAware ADS-B
Fri 05:57:01 AM 41.1742 -95.5927 1000° North 240 276 4,300 -1,588 Descending FlightAware ADS-B
Fri 05:57:17 AM 41.1762 -95.6185 1000° North 258 297 3,900 -1,235 Descending FlightAware ADS-B
Fri 05:58:09 AM 41.1833 -95.7023 1000° North 264 304 2,900 -882 Descending FlightAware ADS-B
Fri 05:58:25 AM 41.1850 -95.7247 1000° North 260 299 2,900  Level FlightAware ADS-B
Fri 05:58:44 AM 41.1866 -95.7498 1000° North 266 306 2,900  Level FlightAware ADS-B
Fri 05:59:02 AM 41.1896 -95.7708 1000° North 266 306 2,900 -130 Level FlightAware ADS-B
Fri 05:59:30 AM 41.1994 -95.7972 1000° North 228 262 2,800 -490 Descending FlightAware ADS-B
Fri 06:00:40 AM 41.2401 -95.8363 1000° North 165 190 2,100 -626 Descending FlightAware ADS-B
Fri 06:01:25 AM 41.2621 -95.8571 1000° North 165 190 1,600 -711 Descending FlightAware ADS-B
Fri 06:01:56 AM 41.2768 -95.8713 1000° North 154 177 1,200 -677 Descending FlightAware ADS-B
Fri 06:02:27 AM 41.2916 -95.8854 1000° North 139 160 900 -581 Descending FlightAware ADS-B

Login

Don't have an account? Register now (free) for customized features, flight alerts, and more!